Date String (YYYY-MM-DD hh:mm:ss) UTC,Instrument flags,Ambient pressure (hPa),Sample flow (lpm),Bypass flow (lpm),Sample temperature (°C),Ambient temperature (°C),ASC tube jacket temperature (°C),LED temperature (°C),Box temperature (°C),Sample RH (%),Span deviation,Mass concentration (μg/m³),Mass concentration (μg/m³),Mass concentration (μg/m³)
DateTimeUTC,F1_M11,P_M11,Q1_M11,Q2_M11,T1_M11,T2_M11,T3_M11,T4_M11,T5_M11,U1_M11,ZSPAN_M11,X0_M11,X2_M11,X1_M11
2022-01-03 08:00:00,,0827.7,4.99,0.00,23.1,22.4,00.0,32.2,24.8,08.3,0000.0,0000.08,0000.03,0000.00
2022-01-03 08:01:00,,0827.6,4.99,0.00,23.2,22.3,00.0,32.2,24.8,08.4,0000.0,0000.06,0000.02,0000.00
2022-01-03 08:02:00,,0827.6,5.01,0.00,23.1,22.3,00.0,32.2,24.8,08.6,0000.0,0000.07,0000.03,0000.00
2022-01-03 08:03:00,,0827.6,5.00,0.00,23.1,22.2,00.0,32.2,24.7,09.0,0000.0,0000.08,0000.03,0000.00
2022-01-03 08:04:00,,0827.6,5.02,0.00,23.0,22.1,00.0,32.2,24.6,08.9,0000.0,0000.08,0000.03,0000.00
2022-01-03 08:05:00,,0827.6,4.99,0.00,22.9,22.0,00.0,32.2,24.5,08.7,0000.0,0000.11,0000.04,0000.00
2022-01-03 08:06:00,,0827.6,5.01,0.00,22.9,22.0,00.0,32.1,24.5,08.8,0000.0,0000.14,0000.04,0000.00
2022-01-03 08:07:00,,0827.6,5.00,0.00,22.9,21.9,00.0,32.1,24.5,09.2,0000.0,0000.14,0000.04,0000.00
2022-01-03 08:08:00,,0827.6,4.99,0.00,22.8,21.8,00.0,32.1,24.4,09.6,0000.0,0000.14,0000.04,0000.00
2022-01-03 08:09:00,,0827.5,5.00,0.00,22.7,21.7,00.0,32.0,24.3,09.5,0000.0,0000.14,0000.04,0000.00
2022-01-03 08:10:00,,0827.5,5.01,0.00,22.7,21.6,00.0,32.0,24.2,09.4,0000.0,0000.16,0000.04,0000.00
2022-01-03 08:11:00,,0827.4,5.00,0.00,22.6,21.7,00.0,31.9,24.2,09.5,0000.0,0000.16,0000.04,0000.00
2022-01-03 08:12:00,,0827.4,4.98,0.00,22.6,21.7,00.0,31.9,24.2,09.1,0000.0,0000.17,0000.05,0000.00
2022-01-03 08:13:00,,0827.5,5.01,0.00,22.7,21.8,00.0,31.9,24.3,09.0,0000.0,0000.18,0000.05,0000.00
2022-01-03 08:14:00,,0827.5,4.99,0.00,22.7,21.9,00.0,31.9,24.3,08.8,0000.0,0000.17,0000.04,0000.00
2022-01-03 08:15:00,,0827.5,5.00,0.00,22.7,21.9,00.0,31.9,24.4,08.7,0000.0,0000.17,0000.04,0000.00
2022-01-03 08:16:00,,0827.6,5.00,0.00,22.7,22.0,00.0,31.8,24.4,08.9,0000.0,0000.11,0000.03,0000.00
2022-01-03 08:17:00,,0827.6,5.00,0.00,22.7,21.9,00.0,31.8,24.4,09.7,0000.0,0000.06,0000.02,0000.00
2022-01-03 08:18:00,,0827.6,4.99,0.00,22.7,21.9,00.0,31.8,24.4,09.8,0000.0,0000.06,0000.02,0000.00
2022-01-03 08:19:00,,0827.7,5.00,0.00,22.7,21.9,00.0,31.8,24.3,09.7,0000.0,0000.06,0000.02,0000.00
2022-01-03 08:20:00,,0827.7,5.01,0.00,22.6,21.8,00.0,31.8,24.3,09.5,0000.0,0000.06,0000.02,0000.00
2022-01-03 08:21:00,,0827.7,4.99,0.00,22.6,21.7,00.0,31.8,24.2,09.2,0000.0,0000.09,0000.02,0000.00
2022-01-03 08:22:00,,0827.6,5.00,0.00,22.5,21.6,00.0,31.7,24.1,09.2,0000.0,0000.16,0000.02,0000.00
2022-01-03 08:23:00,,0827.6,5.01,0.00,22.5,21.6,00.0,31.7,24.1,08.9,0000.0,0000.16,0000.02,0000.00
2022-01-03 08:24:00,,0827.5,5.00,0.00,22.5,21.7,00.0,31.7,24.1,08.8,0000.0,0000.12,0000.01,0000.00
2022-01-03 08:25:00,,0827.5,5.00,0.00,22.5,21.7,00.0,31.7,24.1,08.6,0000.0,0000.18,0000.02,0000.00
2022-01-03 08:26:00,,0827.5,5.01,0.00,22.5,21.7,00.0,31.6,24.2,08.3,0000.0,0000.21,0000.02,0000.00
2022-01-03 08:27:00,,0827.6,4.99,0.00,22.5,21.8,00.0,31.6,24.2,08.3,0000.0,0001.39,0000.02,0000.00
2022-01-03 08:28:00,,0827.7,5.00,0.00,22.5,21.8,00.0,31.6,24.2,08.5,0000.0,0001.55,0000.03,0000.00
2022-01-03 08:29:00,,0827.8,5.01,0.00,22.5,21.8,00.0,31.6,24.2,08.4,0000.0,0001.55,0000.02,0000.00
2022-01-03 08:30:00,,0827.8,5.00,0.00,22.5,21.8,00.0,31.6,24.1,08.5,0000.0,0001.93,0000.02,0000.00
2022-01-03 08:31:00,,0827.7,5.00,0.00,22.5,21.8,00.0,31.6,24.1,08.6,0000.0,0002.95,0000.02,0000.00
2022-01-03 08:32:00,,0827.7,5.01,0.00,22.5,21.7,00.0,31.6,24.1,09.0,0000.0,0002.92,0000.02,0000.00
2022-01-03 08:33:00,,0827.6,4.99,0.00,22.4,21.6,00.0,31.6,24.0,09.5,0000.0,0002.84,0000.02,0000.00
2022-01-03 08:34:00,,0827.6,4.99,0.00,22.4,21.5,00.0,31.6,23.9,09.5,0000.0,0002.84,0000.02,0000.00
2022-01-03 08:35:00,,0827.6,5.00,0.00,22.3,21.5,00.0,31.5,23.9,09.2,0000.0,0002.84,0000.02,0000.00
2022-01-03 08:36:00,,0827.6,5.00,0.00,22.3,21.4,00.0,31.5,23.8,09.1,0000.0,0002.78,0000.01,0000.00
2022-01-03 08:37:00,,0827.5,5.00,0.00,22.2,21.5,00.0,31.5,23.9,09.3,0000.0,0002.75,0000.01,0000.00
2022-01-03 08:38:00,,0827.5,5.01,0.00,22.3,21.5,00.0,31.4,23.9,09.3,0000.0,0001.66,0000.00,0000.00
2022-01-03 08:39:00,,0827.6,5.00,0.00,22.3,21.6,00.0,31.4,24.0,09.2,0000.0,0001.64,0000.01,0000.00
2022-01-03 08:40:00,,0827.6,5.01,0.00,22.3,21.6,00.0,31.4,24.0,09.6,0000.0,0001.74,0000.01,0000.00
2022-01-03 08:41:00,,0827.6,4.99,0.00,22.3,21.5,00.0,31.4,23.9,09.0,0000.0,0001.53,0000.01,0000.00
2022-01-03 08:42:00,,0827.6,5.00,0.00,22.2,21.5,00.0,31.4,23.9,08.7,0000.0,0001.27,0000.02,0000.00
2022-01-03 08:43:00,,0827.5,5.00,0.00,22.2,21.5,00.0,31.4,23.9,08.7,0000.0,0001.57,0000.03,0000.01
2022-01-03 08:44:00,,0827.5,5.01,0.00,22.2,21.5,00.0,31.4,23.9,09.2,0000.0,0001.57,0000.03,0000.00
2022-01-03 08:45:00,,0827.5,4.99,0.00,22.2,21.5,00.0,31.4,23.9,09.7,0000.0,0001.90,0000.04,0000.00
2022-01-03 08:46:00,,0827.5,5.00,0.00,22.2,21.4,00.0,31.4,23.8,09.8,0000.0,0002.64,0000.06,0000.00
2022-01-03 08:47:00,,0827.5,5.00,0.00,22.2,21.3,00.0,31.3,23.8,09.5,0000.0,0002.66,0000.07,0000.00
2022-01-03 08:48:00,,0827.5,5.02,0.00,22.2,21.3,00.0,31.3,23.8,08.4,0000.0,0002.75,0000.10,0000.00
2022-01-03 08:49:00,,0827.5,5.00,0.00,22.2,21.4,00.0,31.3,23.8,08.3,0000.0,0002.76,0000.11,0000.00
2022-01-03 08:50:00,,0827.5,4.99,0.00,22.2,21.4,00.0,31.3,23.9,08.8,0000.0,0002.61,0000.12,0000.00
2022-01-03 08:51:00,,0827.6,5.00,0.00,22.2,21.4,00.0,31.3,23.8,09.0,0000.0,0002.55,0000.12,0000.01
2022-01-03 08:52:00,,0827.6,5.01,0.00,22.1,21.4,00.0,31.3,23.8,08.7,0000.0,0002.55,0000.12,0000.01
2022-01-03 08:53:00,,0827.5,4.99,0.00,22.1,21.4,00.0,31.3,23.8,08.9,0000.0,0001.53,0000.11,0000.01
2022-01-03 08:54:00,,0827.5,5.01,0.00,22.1,21.4,00.0,31.2,23.7,09.4,0000.0,0001.36,0000.12,0000.01
2022-01-03 08:55:00,,0827.5,5.00,0.00,22.0,21.3,00.0,31.2,23.6,09.7,0000.0,0001.37,0000.13,0000.01
2022-01-03 08:56:00,,0827.5,5.01,0.00,21.9,21.1,00.0,31.2,23.4,09.9,0000.0,0001.05,0000.12,0000.01
2022-01-03 08:57:00,,0827.4,5.01,0.00,21.9,21.0,00.0,31.2,23.4,10.0,0000.0,0000.30,0000.09,0000.01
2022-01-03 08:58:00,,0827.4,4.99,0.00,21.9,21.0,00.0,31.1,23.4,10.2,0000.0,0000.28,0000.09,0000.01
2022-01-03 08:59:00,,0827.4,5.02,0.00,21.9,21.0,00.0,31.1,23.4,10.2,0000.0,0000.19,0000.05,0000.01
